This is the latest recevied weather packets stored in our database for station/object W2JGA. If no packets are shown the sender has not sent any weather packets the latest 10 day(s).
| Time | Temp. | Humidity | Pressure | Rain* | Wind** | Luminosity | Snow |
|---|---|---|---|---|---|---|---|
| 1777405991 | 27.78° C | 19% | 1018.3 hPa | 0 mm | - | 787 W/m² | - |
| 1777405687 | 27.78° C | 19% | 1018.3 hPa | 0 mm | - | 778 W/m² | - |
| 1777405384 | 27.78° C | 18% | 1018.3 hPa | 0 mm | - | 779 W/m² | - |
| 1777405080 | 27.22° C | 19% | 1018.3 hPa | 0 mm | - | 776 W/m² | - |
| 1777404780 | 27.22° C | 19% | 1018.3 hPa | 0 mm | - | 780 W/m² | - |
| 1777404476 | 27.22° C | 19% | 1018.3 hPa | 0 mm | - | 773 W/m² | - |
| 1777404173 | 27.22° C | 19% | 1018.3 hPa | 0 mm | - | 778 W/m² | - |
| 1777403868 | 26.67° C | 20% | 1018.3 hPa | 0 mm | - | 755 W/m² | - |
| 1777403563 | 27.78° C | 20% | 1018.7 hPa | 0 mm | - | 730 W/m² | - |
| 1777403258 | 27.78° C | 20% | 1018.7 hPa | 0 mm | - | 726 W/m² | - |
| 1777402958 | 27.78° C | 20% | 1018.7 hPa | 0 mm | - | 696 W/m² | - |
| 1777402653 | 26.67° C | 20% | 1019 hPa | 0 mm | - | 672 W/m² | - |
| 1777402352 | 26.11° C | 22% | 1019 hPa | 0 mm | - | 630 W/m² | - |
| 1777402051 | 25.56° C | 22% | 1019 hPa | 0 mm | - | 630 W/m² | - |
| 1777401746 | 25.56° C | 21% | 1019 hPa | 0 mm | - | 598 W/m² | - |
| 1777401442 | 26.11° C | 21% | 1019 hPa | 0 mm | - | 608 W/m² | - |
| 1777401138 | 25.56° C | 22% | 1019 hPa | 0 mm | - | 602 W/m² | - |
| 1777400833 | 25° C | 23% | 1019 hPa | 0 mm | - | 663 W/m² | - |
| 1777400530 | 25° C | 22% | 1019.4 hPa | 0 mm | - | 687 W/m² | - |
| 1777400228 | 24.44° C | 24% | 1019.4 hPa | 0 mm | - | 654 W/m² | - |
| 1777399924 | 25° C | 26% | 1019.4 hPa | 0 mm | - | 654 W/m² | - |
| 1777399620 | 25° C | 24% | 1019.4 hPa | 0 mm | - | 686 W/m² | - |
| 1777399317 | 25° C | 27% | 1019.4 hPa | 0 mm | - | 747 W/m² | - |
| 1777399016 | 24.44° C | 28% | 1019.4 hPa | 0 mm | - | 770 W/m² | - |
| 1777398712 | 24.44° C | 28% | 1019.7 hPa | 0 mm | - | 723 W/m² | - |
* Rain latest hour (hover to see other rain measurements)
** Current wind speed in m/s (hover to see current wind gust speed)